When you browse on this site, cookies collect data to enhance your experience and personalize the content and advertising you see.
Visit our Privacy Policy to learn more. By continuing to use the site, you agree to this use of cookies and data.
  • In Österreich
  • Länderverzeichnis
  • Für 7 Tage
  • Wassertemperatur
  • Satellitenkarten
  • Wetterkarte
  • News
  • Widgets
  • user-avatar
    Anmelden

    Stündliche Wetter Bogucino

    Heute, 11 Dezember, Dienstag

    Zeit Temperatur Niederschläge Wind Luftdruck Luftfeuchtigkeit
    00:00 +2°C° 0.5 mm 6 m/S 751 mmHg 81%
    01:00 +2°C° 0.5 mm 6 m/S 751 mmHg 81%
    02:00 +2°C° 0.4 mm 6 m/S 751 mmHg 81%
    03:00 +2°C° 0.4 mm 6 m/S 751 mmHg 81%
    04:00 +2°C° 0.4 mm 5 m/S 751 mmHg 82%
    05:00 +2°C° 0.2 mm 6 m/S 752 mmHg 82%
    06:00 +2°C° 0.2 mm 6 m/S 752 mmHg 83%
    07:00 +1°C° 0.2 mm 6 m/S 753 mmHg 83%
    08:00 +2°C° 0.2 mm 6 m/S 753 mmHg 82%
    09:00 +2°C° 0.2 mm 7 m/S 754 mmHg 82%
    10:00 +2°C° 0.2 mm 7 m/S 755 mmHg 81%
    11:00 +2°C° 0.3 mm 7 m/S 755 mmHg 80%
    12:00 +2°C° 0.3 mm 7 m/S 756 mmHg 78%
    13:00 +3°C° 0.3 mm 7 m/S 756 mmHg 77%
    14:00 +2°C° 0.2 mm 7 m/S 757 mmHg 78%
    15:00 +2°C° 0.2 mm 7 m/S 757 mmHg 79%
    16:00 +2°C° 0.2 mm 7 m/S 758 mmHg 81%
    17:00 +2°C° 0.2 mm 6 m/S 758 mmHg 82%
    18:00 +2°C° 0.2 mm 6 m/S 759 mmHg 83%
    19:00 +2°C° 0.2 mm 6 m/S 759 mmHg 84%
    20:00 +1°C° 0.1 mm 5 m/S 760 mmHg 86%
    21:00 +1°C° 0.1 mm 5 m/S 760 mmHg 87%
    22:00 +1°C° 0.1 mm 4 m/S 761 mmHg 88%
    23:00 0°C° 0 mm 4 m/S 761 mmHg 89%

    Morgen, 12 Dezember, Mittwoch

    Zeit Temperatur Niederschläge Wind Luftdruck Luftfeuchtigkeit
    00:00 0°C° 0 mm 4 m/S 762 mmHg 89%
    01:00 +1°C° 0 mm 3 m/S 762 mmHg 89%
    02:00 +1°C° 0 mm 3 m/S 763 mmHg 90%
    03:00 0°C° 0 mm 3 m/S 763 mmHg 90%
    04:00 0°C° 0 mm 3 m/S 763 mmHg 90%
    05:00 0°C° 0 mm 3 m/S 764 mmHg 90%
    06:00 0°C° 0 mm 3 m/S 764 mmHg 90%
    07:00 0°C° 0 mm 3 m/S 765 mmHg 90%
    08:00 +1°C° 0.1 mm 3 m/S 765 mmHg 88%
    09:00 +1°C° 0.1 mm 3 m/S 765 mmHg 87%
    10:00 +2°C° 0.1 mm 2 m/S 766 mmHg 85%
    11:00 +2°C° 0.2 mm 3 m/S 766 mmHg 83%
    12:00 +3°C° 0.2 mm 3 m/S 766 mmHg 80%
    13:00 +3°C° 0.2 mm 4 m/S 766 mmHg 78%
    14:00 +3°C° 0.2 mm 4 m/S 766 mmHg 81%
    15:00 +1°C° 0.2 mm 4 m/S 766 mmHg 84%
    16:00 +1°C° 0.2 mm 4 m/S 766 mmHg 87%
    17:00 0°C° 0.2 mm 4 m/S 766 mmHg 88%
    18:00 0°C° 0.2 mm 4 m/S 766 mmHg 88%
    19:00 0°C° 0.2 mm 4 m/S 767 mmHg 89%
    20:00 0°C° 0.1 mm 4 m/S 767 mmHg 89%
    21:00 0°C° 0.1 mm 4 m/S 767 mmHg 90%
    22:00 -1°C° 0.1 mm 4 m/S 767 mmHg 90%
    23:00 -1°C° 0.1 mm 4 m/S 767 mmHg 91%

    übermorgen, 13 Dezember, Donnerstag

    Zeit Temperatur Niederschläge Wind Luftdruck Luftfeuchtigkeit
    00:00 -1°C° 0.1 mm 4 m/S 767 mmHg 91%
    01:00 -1°C° 0.1 mm 4 m/S 767 mmHg 91%
    02:00 -1°C° 0.1 mm 4 m/S 767 mmHg 92%
    03:00 -1°C° 0.1 mm 4 m/S 767 mmHg 92%
    04:00 0°C° 0.1 mm 3 m/S 767 mmHg 93%
    05:00 0°C° 0 mm 3 m/S 767 mmHg 92%
    06:00 -1°C° 0 mm 4 m/S 767 mmHg 92%
    07:00 -1°C° 0 mm 4 m/S 767 mmHg 91%
    08:00 -1°C° 0.1 mm 4 m/S 767 mmHg 89%
    09:00 -1°C° 0.1 mm 4 m/S 767 mmHg 88%
    10:00 0°C° 0.1 mm 4 m/S 767 mmHg 86%
    11:00 0°C° 0.1 mm 4 m/S 767 mmHg 84%
    12:00 +1°C° 0.1 mm 4 m/S 767 mmHg 82%
    13:00 +1°C° 0.1 mm 4 m/S 767 mmHg 79%
    14:00 +1°C° 0.1 mm 4 m/S 767 mmHg 81%
    15:00 0°C° 0.1 mm 4 m/S 767 mmHg 83%
    16:00 0°C° 0.1 mm 4 m/S 767 mmHg 84%
    17:00 0°C° 0.1 mm 4 m/S 767 mmHg 84%
    18:00 0°C° 0.1 mm 4 m/S 767 mmHg 85%
    19:00 0°C° 0.1 mm 4 m/S 767 mmHg 85%
    20:00 -1°C° 0.1 mm 4 m/S 767 mmHg 86%
    21:00 0°C° 0.1 mm 3 m/S 767 mmHg 87%
    22:00 -1°C° 0.1 mm 3 m/S 767 mmHg 88%
    23:00 -1°C° 0 mm 3 m/S 767 mmHg 88%

    14 Dezember, Freitag

    Zeit Temperatur Niederschläge Wind Luftdruck Luftfeuchtigkeit
    00:00 -1°C° 0 mm 2 m/S 767 mmHg 88%
    01:00 -1°C° 0 mm 2 m/S 768 mmHg 88%
    02:00 -1°C° 0 mm 2 m/S 768 mmHg 87%
    03:00 -1°C° 0 mm 2 m/S 768 mmHg 87%
    04:00 -1°C° 0 mm 2 m/S 768 mmHg 87%
    05:00 -2°C° 0 mm 2 m/S 768 mmHg 87%
    06:00 -2°C° 0 mm 2 m/S 768 mmHg 87%
    07:00 -2°C° 0 mm 2 m/S 768 mmHg 86%
    08:00 -2°C° 0 mm 2 m/S 768 mmHg 84%
    09:00 -1°C° 0 mm 2 m/S 769 mmHg 81%
    10:00 -1°C° 0 mm 2 m/S 769 mmHg 79%
    11:00 -1°C° 0 mm 2 m/S 769 mmHg 77%
    12:00 +1°C° 0 mm 2 m/S 769 mmHg 75%
    13:00 0°C° 0 mm 3 m/S 769 mmHg 73%
    14:00 0°C° 0 mm 3 m/S 769 mmHg 76%
    15:00 -1°C° 0 mm 3 m/S 770 mmHg 79%
    16:00 -1°C° 0 mm 3 m/S 770 mmHg 82%
    17:00 -1°C° 0 mm 3 m/S 770 mmHg 83%
    18:00 -1°C° 0 mm 3 m/S 770 mmHg 84%
    19:00 -1°C° 0 mm 3 m/S 771 mmHg 84%
    20:00 -1°C° 0 mm 3 m/S 771 mmHg 85%
    21:00 -1°C° 0 mm 3 m/S 771 mmHg 85%
    22:00 -1°C° 0 mm 3 m/S 771 mmHg 85%
    23:00 -1°C° 0.1 mm 3 m/S 771 mmHg 86%

    15 Dezember, Samstag

    Zeit Temperatur Niederschläge Wind Luftdruck Luftfeuchtigkeit
    00:00 -1°C° 0.1 mm 3 m/S 771 mmHg 86%
    01:00 -1°C° 0.1 mm 3 m/S 772 mmHg 87%
    02:00 -1°C° 0.1 mm 2 m/S 772 mmHg 88%
    03:00 -1°C° 0.1 mm 2 m/S 772 mmHg 88%
    04:00 -1°C° 0.1 mm 2 m/S 772 mmHg 89%
    05:00 -1°C° 0 mm 3 m/S 772 mmHg 89%
    06:00 -1°C° 0 mm 3 m/S 772 mmHg 90%
    07:00 -2°C° 0 mm 3 m/S 772 mmHg 90%
    08:00 -1°C° 0 mm 3 m/S 772 mmHg 88%
    09:00 -1°C° 0 mm 3 m/S 773 mmHg 87%
    10:00 -2°C° 0 mm 4 m/S 773 mmHg 85%
    11:00 -1°C° 0 mm 4 m/S 773 mmHg 83%
    12:00 -1°C° 0 mm 4 m/S 773 mmHg 81%
    13:00 0°C° 0 mm 4 m/S 773 mmHg 79%
    14:00 -1°C° 0 mm 4 m/S 772 mmHg 81%
    15:00 -1°C° 0 mm 4 m/S 773 mmHg 83%
    16:00 -2°C° 0 mm 4 m/S 773 mmHg 85%
    17:00 -2°C° 0 mm 4 m/S 773 mmHg 86%
    18:00 -2°C° 0 mm 4 m/S 773 mmHg 87%
    19:00 -4°C° 0 mm 5 m/S 773 mmHg 87%
    20:00 -4°C° 0 mm 5 m/S 772 mmHg 86%
    21:00 -4°C° 0 mm 5 m/S 772 mmHg 85%
    22:00 -4°C° 0 mm 5 m/S 772 mmHg 84%
    23:00 -4°C° 0 mm 5 m/S 772 mmHg 83%

    16 Dezember, Sonntag

    Zeit Temperatur Niederschläge Wind Luftdruck Luftfeuchtigkeit
    00:00 -4°C° 0 mm 5 m/S 772 mmHg 82%
    01:00 -4°C° 0 mm 6 m/S 772 mmHg 81%
    02:00 -4°C° 0 mm 6 m/S 771 mmHg 81%
    03:00 -4°C° 0 mm 6 m/S 771 mmHg 80%
    04:00 -4°C° 0 mm 6 m/S 770 mmHg 80%
    05:00 -4°C° 0 mm 6 m/S 770 mmHg 81%
    06:00 -4°C° 0 mm 7 m/S 770 mmHg 81%
    07:00 -4°C° 0 mm 7 m/S 770 mmHg 82%
    08:00 -4°C° 0 mm 7 m/S 769 mmHg 81%
    09:00 -4°C° 0 mm 7 m/S 769 mmHg 79%
    10:00 -5°C° 0 mm 8 m/S 769 mmHg 78%
    11:00 -5°C° 0 mm 8 m/S 769 mmHg 76%
    12:00 -4°C° 0 mm 8 m/S 768 mmHg 73%
    13:00 -4°C° 0 mm 8 m/S 768 mmHg 71%
    14:00 -4°C° 0 mm 8 m/S 768 mmHg 72%
    15:00 -4°C° 0 mm 8 m/S 767 mmHg 72%
    16:00 -4°C° 0 mm 8 m/S 767 mmHg 73%
    17:00 -4°C° 0 mm 8 m/S 767 mmHg 74%
    18:00 -4°C° 0 mm 8 m/S 767 mmHg 74%
    19:00 -4°C° 0 mm 8 m/S 767 mmHg 75%
    20:00 -3°C° 0 mm 7 m/S 767 mmHg 76%
    21:00 -3°C° 0 mm 7 m/S 767 mmHg 77%
    22:00 -3°C° 0 mm 7 m/S 767 mmHg 78%
    23:00 -3°C° 0.1 mm 6 m/S 767 mmHg 80%
    Mehr zeigen